This is the latest recevied weather packets stored in our database for station/object WC4PEM-10. If no packets are shown the sender has not sent any weather packets the latest 10 day(s).
| Time | Temp. | Humidity | Pressure | Rain* | Wind** | Luminosity | Snow |
|---|---|---|---|---|---|---|---|
| 1787426465 | 34.44° C | 63% | 1014.9 hPa | 0 mm | - | - | - |
| 1787426267 | 33.89° C | 62% | 1015.1 hPa | 0 mm | - | - | - |
| 1787426165 | 33.89° C | 62% | 1015.1 hPa | 0 mm | - | - | - |
| 1787425969 | 33.33° C | 65% | 1015.2 hPa | 0 mm | - | - | - |
| 1787425865 | 33.33° C | 65% | 1015.2 hPa | 0 mm | - | - | - |
| 1787425686 | 33.33° C | 64% | 1015.2 hPa | 0 mm | - | - | - |
| 1787425565 | 33.33° C | 64% | 1015.2 hPa | 0 mm | - | - | - |
| 1787425389 | 33.33° C | 64% | 1015.3 hPa | 0 mm | - | - | - |
| 1787425265 | 33.33° C | 64% | 1015.3 hPa | 0 mm | - | - | - |
| 1787425058 | 33.33° C | 66% | 1015.2 hPa | 0 mm | - | - | - |
| 1787424965 | 33.33° C | 66% | 1015.2 hPa | 0 mm | - | - | - |
| 1787424759 | 33.33° C | 64% | 1015.4 hPa | 0 mm | - | - | - |
| 1787424665 | 33.33° C | 64% | 1015.4 hPa | 0 mm | - | - | - |
| 1787424455 | 33.33° C | 65% | 1015.4 hPa | 0 mm | - | - | - |
| 1787424365 | 33.33° C | 65% | 1015.4 hPa | 0 mm | - | - | - |
| 1787424185 | 33.33° C | 65% | 1015.5 hPa | 0 mm | - | - | - |
| 1787424065 | 33.33° C | 65% | 1015.5 hPa | 0 mm | - | - | - |
| 1787423877 | 33.33° C | 66% | 1015.5 hPa | 0 mm | - | - | - |
| 1787423765 | 33.33° C | 66% | 1015.5 hPa | 0 mm | - | - | - |
| 1787423574 | 32.78° C | 65% | 1015.6 hPa | 0 mm | - | - | - |
| 1787423465 | 32.78° C | 65% | 1015.6 hPa | 0 mm | - | - | - |
| 1787423285 | 32.22° C | 68% | 1015.6 hPa | 0 mm | - | - | - |
| 1787423165 | 32.22° C | 68% | 1015.6 hPa | 0 mm | - | - | - |
| 1787422990 | 32.22° C | 65% | 1015.7 hPa | 0 mm | - | - | - |
| 1787422865 | 32.22° C | 65% | 1015.7 hPa | 0 mm | - | - | - |
* Rain latest hour (hover to see other rain measurements)
** Current wind speed in m/s (hover to see current wind gust speed)